This is the latest recevied weather packets stored in our database for station/object W5GMO. If no packets are shown the sender has not sent any weather packets the latest 10 day(s).
| Time | Temp. | Humidity | Pressure | Rain* | Wind** | Luminosity | Snow |
|---|---|---|---|---|---|---|---|
| 1777514838 | 13.89° C | 89% | 1008 hPa | 0 mm | - | 0 W/m² | - |
| 1777514534 | 13.89° C | 89% | 1008.2 hPa | 1.78 mm | - | 0 W/m² | - |
| 1777514232 | 13.89° C | 88% | 1008.4 hPa | 1.78 mm | - | 0 W/m² | - |
| 1777513928 | 13.89° C | 88% | 1008.2 hPa | 0 mm | - | 0 W/m² | - |
| 1777513625 | 13.89° C | 89% | 1008.3 hPa | 0 mm | - | 0 W/m² | - |
| 1777513322 | 13.89° C | 89% | 1008.1 hPa | 0 mm | - | 0 W/m² | - |
| 1777513018 | 13.89° C | 88% | 1008.2 hPa | 0 mm | - | 0 W/m² | - |
| 1777512108 | 13.89° C | 89% | 1008.4 hPa | 0 mm | - | 0 W/m² | - |
| 1777511807 | 13.89° C | 89% | 1007.9 hPa | 0 mm | - | 0 W/m² | - |
| 1777511503 | 13.89° C | 89% | 1008.1 hPa | 0 mm | - | 0 W/m² | - |
| 1777510896 | 13.89° C | 90% | 1008.5 hPa | 0 mm | - | 0 W/m² | - |
| 1777509986 | 13.89° C | 92% | 1008.1 hPa | 0 mm | - | 0 W/m² | - |
| 1777509075 | 13.89° C | 92% | 1007.6 hPa | 0 mm | - | 0 W/m² | - |
| 1777508772 | 13.89° C | 92% | 1007.6 hPa | 0 mm | - | 0 W/m² | - |
| 1777507863 | 13.89° C | 93% | 1007.8 hPa | 0 mm | - | 0 W/m² | - |
| 1777507560 | 13.89° C | 93% | 1007.9 hPa | 0 mm | - | 0 W/m² | - |
| 1777507257 | 13.89° C | 93% | 1007.9 hPa | 0 mm | - | 0 W/m² | - |
| 1777506954 | 13.89° C | 93% | 1008 hPa | 0 mm | - | 1 W/m² | - |
| 1777506652 | 13.89° C | 93% | 1008.1 hPa | 0 mm | - | 0 W/m² | - |
| 1777506348 | 13.89° C | 93% | 1007.9 hPa | 0 mm | - | 1 W/m² | - |
| 1777505739 | 13.89° C | 93% | 1007.9 hPa | 1.27 mm | - | 4 W/m² | - |
| 1777501797 | 13.89° C | 91% | 1008.7 hPa | 1.27 mm | - | 16 W/m² | - |
| 1777500586 | 14.44° C | 89% | 1008.5 hPa | 7.87 mm | - | 18 W/m² | - |
| 1777499979 | 15° C | 88% | 1008.8 hPa | 8.89 mm | - | 7 W/m² | - |
| 1777498160 | 15° C | 85% | 1009.1 hPa | 0 mm | - | 17 W/m² | - |
* Rain latest hour (hover to see other rain measurements)
** Current wind speed in m/s (hover to see current wind gust speed)